Location: Minneapolis
(45.0000°N, 93.0000°W)
Time: 14:25:01
(UTC-05:00)

Envisat - Pass Details

Date: 09 March 2018
Orbit: 764 x 766 km, 98.2° (Epoch: 20 June)

Event Time Altitude Azimuth Distance (km) Brightness Sun altitude
Rises 19:39:33 0° 168° (SSE) 3,214 6.0 -16.5°
Reaches altitude 10° 19:41:50 10° 170° (S) 2,292 5.3 -16.9°
Maximum altitude 19:46:54 79° 256° (WSW) 784 3.1 -17.8°
Drops below altitude 10° 19:52:00 10° 344° (NNW) 2,309 5.8 -18.7°
Sets 19:54:19 0° 346° (NNW) 3,240 6.6 -19.1°
